Regional Weather Roundup
Issued by NWS Charleston, SC

Current Version | Previous Version | Graphics & Text | Print | Product List | Glossary On
Versions: 1 2 3 4 5 6 7 8 9 10 11 12 13 14 15 16 17 18 19 20 21 22 23 24 25 26 27 28 29 30 31 32 33 34 35 36 37 38 39 40 41 42 43 44 45 46 47 48 49 50
533 ASUS42 KCHS 061212 RWRCHS REGIONAL WEATHER ROUNDUP NATIONAL WEATHER SERVICE CHARLESTON SC 700 AM EST TUE DEC 06 2016 NOTE: "FAIR" INDICATES FEW OR NO CLOUDS BELOW 12,000 FEET WITH NO SIGNIFICANT WEATHER AND/OR OBSTRUCTIONS TO VISIBILITY. NOT ALL STATIONS ARE QUALITY CONTROLLED. USE DATA WITH CAUTION... ESPECIALLY DEWPOINT OBSERVATIONS. SCZ027-030-031-034>040-042>050-061300- ...SOUTHEAST SOUTH CAROLINA... CITY SKY/WX TMP DP RH WIND PRES REMARKS N CHARLESTON HVY RAIN 59 57 93 NE7 29.80F FOG 6HR MIN TEMP: 57; 6HR MAX TEMP: 60; 6HR PCP: 1.57; WATERFRONT PRK N/A 59 59 100 N7 29.79F MOUNT PLEASANT NOT AVBL JOHNS ISLAND LGT RAIN 61 61 100 NE8 29.79F PINOPOLIS N/A N/A N/A N/A N7 N/A MONCKS CORNER RAIN 55 55 100 E6 29.81F SUMMERVILLE LGT RAIN N/A N/A N/A E5 29.80F BEAUFORT MCAS CLOUDY 62 61 96 SE6 29.79F 6HR MIN TEMP: 58; 6HR MAX TEMP: 62; 6HR PCP: 1.60; BEAUFORT ARPT DRIZZLE 59 59 100 E7 29.80S HILTON HEAD IS CLOUDY 61 61 100 N7 29.97R WALTERBORO CLOUDY 61 N/A N/A E6 29.78F ALLENDALE CLOUDY 59 59 100 E5 29.76S ...SOUTHERN MIDLANDS AND PEE DEE... CITY SKY/WX TMP DP RH WIND PRES REMARKS GEORGETOWN DRIZZLE 55 54 94 E3 29.85F KINGSTREE LGT RAIN 52 50 93 E7 29.83R ORANGEBURG LGT RAIN 56 56 100 E9 29.78F 6HR MIN TEMP: 53; 6HR MAX TEMP: 57; 6HR PCP: 0.64; BARNWELL NOT AVBL AIKEN NOT AVBL MANNING HVY RAIN 54 54 100 N6 29.84R COLUMBIA LGT RAIN 53 51 93 N7 29.84R FOG 6HR MIN TEMP: 53; 6HR MAX TEMP: 54; 6HR PCP: 0.33; SUMTER LGT RAIN 50 50 100 E9 29.80F 6HR MIN TEMP: 51; 6HR MAX TEMP: 53; 6HR PCP: 0.29; FLORENCE CLOUDY 49 48 97 NE10 29.87R 6HR MIN TEMP: 49; 6HR MAX TEMP: 52; 6HR PCP: 0.43; MYRTLE BEACH LGT RAIN 55 54 94 E14 29.86F FOG N MYRTLE BEACH RAIN 51 51 100 NE8 29.86F FOG 6HR MIN TEMP: 49; 6HR MAX TEMP: 53; $$ GAZ063-065-086>088-099>101-113>116-118-119-134>141-150-061300- ...SOUTHEAST GEORGIA... CITY SKY/WX TMP DP RH WIND PRES REMARKS SAVANNAH ARPT DRIZZLE 60 58 92 S7 29.78F 6HR MIN TEMP: 58; 6HR MAX TEMP: 60; 6HR PCP: 1.07; HUNTER AAF DRIZZLE 59 59 100 VRB3 29.76F FOG 6HR MIN TEMP: 59; 6HR MAX TEMP: 61; 6HR PCP: 1.00; FORT STEWART CLOUDY 59 57 94 CALM 29.75F 6HR PCP: 1.52; STATESBORO NOT AVBL SYLVANIA CLOUDY N/A N/A N/A SE3 29.76F CLAXTON CLOUDY N/A N/A N/A W3 29.79R ...CSRA...CENTRAL AND FAR SOUTHEAST GEORGIA... CITY SKY/WX TMP DP RH WIND PRES REMARKS THOMSON CLOUDY 55 55 100 CALM 29.84F AUGUSTA-BUSH LGT RAIN 57 54 89 N6 29.81R 6HR MIN TEMP: 56; 6HR MAX TEMP: 57; 6HR PCP: 0.39; AUGUSTA-DANIEL LGT RAIN 55 52 89 N10 29.81S FOG SWAINSBORO DRIZZLE 61 59 94 E5 29.77F VIDALIA CLOUDY 61 61 100 E5 29.75F EASTMAN RAIN 61 61 99 CALM 29.74F HAZLEHURST LGT RAIN 62 62 100 SE5 29.75S ALMA LGT RAIN 60 60 100 E5 29.75F FOG 6HR MIN TEMP: 59; 6HR MAX TEMP: 61; 6HR PCP: 0.88; WAYCROSS CLOUDY 73 73 100 S7 29.75F JESUP HVY RAIN 63 63 100 CALM 29.77F BAXLEY LGT RAIN 61 61 100 CALM 29.76R BRUNSWICK CLOUDY 72 72 100 S8 29.79S SAINT SIMONS CLOUDY 68 68 100 S8 29.78F 6HR MIN TEMP: 64; 6HR MAX TEMP: 69; 6HR PCP: 0.61; $$ SCZ027-028-034-036>038-045-046-048>050-GAZ119-141-061300- ...LAKE AND SUPPLEMENTAL COASTAL OBSERVATIONS... STATION/POSITION TIME TEMP WIND PRES WAVE SWELL AIR SEA DIR/SP/G HT/PER HT/PER/DIR (UTC) (F) (DEG/KT/KT) (MB) (FT/S) (FT/S/D) WINYAH BAY 1045 56 60/ 16 1010.0 LAKE MURRAY 1120 53 40/ 4/ 9 1010.2 ACE BASIN NERRS 1045 60 40/ 4 1009.0 FORT PULASKI 1136 60 62 360/ 6/ 8 1009.1R SAPELO ISLAND 1100 67 150/ 10 1009.0 $$ ANZ835-935-AMZ111-154-330-350-352-354-370-450-454-472-061300- ...C-MAN AND BUOY OBSERVATIONS... STATION/POSITION TIME TEMP WIND PRES WAVE SWELL AIR SEA DIR/SP/G HT/PER HT/PER/DIR (UTC) (F) (DEG/KT/KT) (MB) (FT/S) (FT/S/D) BUOY 41004 1150 73 74 170/ 10/ 14 1008.1F 7/ 6 7/ 50/ 6 BUOY 41008 1150 68 65 180/ 14/ 16 1008.3F 4/ 5 2/ 10/11 FOLLY BEACH CMAN 1100 61 70/ 17/ 20 1010.0F CAPERS NEARSHORE 1108 62 60 80/ 21/ 33 1008.9F FRIPP NEARSHORE 1108 63 62 90/ 12/ 17 1009.1S STATION/POSITION TIME TEMP WIND PRES WAVE SWELL AIR SEA DIR/SP/G HT/PER HT/PER/DIR (UTC) (F) (DEG/KT/KT) (MB) (FT/S) (FT/S/D) 5E ST. MARYS GA 1130 66 N/A 3/ 6 FRYING PAN BUOY 1150 68 74 40/ 23/ 31 1009.8F 8/ 6 2/100/ 9 BUOY 41025 1150 65 76 90/ 17/ 23 1014.0F 6/ 8 2/ 60/11 CAPE LOOKOUT NC 1100 56 50/ 19/ 22 1013.7F BUOY 41002 1150 74 74 180/ 16/ 19 1014.2F 6/ 6 2/ 10/ 9 BUOY 41010 NOT AVBL ST AUGUSTINE FL 1200 72 68 200/ 7/ 9 1011.1R $$

USA.gov is the U.S. government's official web portal to all federal, state and local government web resources and services.